EST,Max TemperatureF,Mean TemperatureF,Min TemperatureF,Max Dew PointF,MeanDew PointF,Min DewpointF,Max Humidity, Mean Humidity, Min Humidity, Max Sea Level PressureIn, Mean Sea Level PressureIn, Min Sea Level PressureIn, Max VisibilityMiles, Mean VisibilityMiles, Min VisibilityMiles, Max Wind SpeedMPH, Mean Wind SpeedMPH, Max Gust SpeedMPH,PrecipitationIn, CloudCover, Events, WindDirDegrees
2013-2-1,66,54,41,37,31,21,81,46,18,30.38,30.30,30.25,10,10,7,15,6,20,0.00,0,,357
2013-2-2,71,55,39,43,37,32,87,54,25,30.33,30.25,30.17,10,10,8,8,3,,0.00,0,,352
2013-2-3,69,56,44,45,41,34,93,59,35,30.23,30.16,30.10,10,10,7,14,5,20,0.00,0,,308
2013-2-4,69,52,35,46,37,30,100,60,25,30.18,30.11,30.06,10,9,3,9,2,,0.00,0,,284
2013-2-5,75,56,37,50,43,34,93,62,34,30.13,30.07,30.02,10,9,7,10,1,17,0.00,0,,240
2013-2-6,77,65,53,61,54,48,100,71,44,30.15,30.09,30.05,10,9,5,9,1,,0.00,5,,97
2013-2-7,80,70,59,64,60,54,100,76,42,30.10,30.01,29.90,10,9,2,18,7,25,0.00,3,Rain,171
2013-2-8,80,68,55,64,58,48,100,74,32,30.11,30.00,29.91,10,9,5,13,9,16,0.00,0,,288
2013-2-9,75,64,53,55,52,46,100,73,36,30.22,30.16,30.10,10,9,5,13,5,,0.00,0,,35
2013-2-10,78,68,57,57,55,54,94,71,42,30.29,30.22,30.17,10,9,7,16,9,21,0.00,1,,98
2013-2-11,80,66,53,63,58,54,100,77,45,30.24,30.17,30.09,10,8,0,15,5,20,0.00,1,Fog,150
2013-2-12,82,68,55,68,62,55,100,78,42,30.13,30.05,29.97,10,6,0,16,5,20,0.00,1,Fog,191
2013-2-13,84,73,62,72,65,54,100,80,48,30.01,29.95,29.87,10,7,2,25,11,40,0.10,6,Rain,214
2013-2-14,64,62,57,63,58,54,100,92,72,30.07,30.01,29.96,10,7,1,14,3,18,0.39,6,Rain,349
2013-2-15,66,60,53,59,55,48,100,89,60,30.10,30.03,29.98,10,6,3,8,3,,0.05,5,Rain,339
2013-2-16,66,58,50,52,44,28,100,68,40,30.14,30.01,29.95,10,9,5,22,7,32,0.00,1,,301
2013-2-17,53,43,33,28,19,12,81,40,19,30.37,30.29,30.16,10,10,9,16,10,24,0.00,0,,353
2013-2-18,68,49,30,46,36,23,93,63,33,30.38,30.32,30.24,10,10,9,15,4,21,0.00,1,Thunderstorm,78
2013-2-19,77,60,42,54,49,43,100,70,36,30.24,30.17,30.10,10,9,7,20,5,24,0.00,1,,221
2013-2-20,77,64,51,66,57,52,100,78,50,30.16,30.10,30.03,10,6,0,9,3,,0.01,5,Fog-Rain,29
2013-2-21,80,68,57,64,58,54,100,72,42,30.14,30.07,30.01,10,9,7,8,4,,0.00,2,,102
2013-2-22,84,70,57,66,62,57,100,73,40,30.11,30.06,30.01,10,8,0,16,5,20,0.00,3,Fog-Rain,141
2013-2-23,86,76,66,72,66,61,100,80,45,30.04,29.98,29.91,10,7,2,20,8,26,0.00,4,Rain,198
2013-2-24,80,73,66,70,67,64,100,87,58,29.99,29.96,29.91,10,6,2,14,7,18,0.00,5,Rain,227
2013-2-25,84,74,64,68,62,59,100,68,42,29.94,29.87,29.80,10,6,0,17,5,24,0.00,4,Fog,175
2013-2-26,77,70,62,73,67,63,100,91,73,29.91,29.83,29.76,10,6,1,23,9,29,0.18,4,Rain,198
2013-2-27,75,66,57,61,54,48,100,74,38,30.00,29.95,29.90,10,7,0,13,5,17,0.00,1,,277
2013-2-28,73,60,48,54,48,43,100,66,35,30.04,29.98,29.92,10,9,7,18,6,23,0.00,1,,292